M0ZPG Weather Reports


time (UTC)temp
C
wind
direction
speed
KPH
gust
KPH
rain 1hr
cm
rain 24hr
cm
rain mn
cm
humidity
%
barometer
mb
20260906072914 17 104 1.6 8.0 0.00 0.00 0.00 76 1021.9
20260906071805 17 139 1.6 8.0 0.00 0.00 0.00 78 1022.0
20260906070903 17 148 1.6 6.4 0.00 0.00 0.00 79 1022.1
20260906070006 16 153 1.6 6.4 0.00 0.00 0.00 80 1022.2
20260906065613 16 160 0.0 6.4 0.00 0.00 0.00 81 1022.0
20260906064503 15 161 0.0 3.2 0.00 0.00 0.00 82 1022.3
20260906063618 15 163 0.0 3.2 0.00 0.00 0.00 82 1022.3
20260906062705 15 163 0.0 3.2 0.00 0.00 0.00 83 1022.3
20260906061806 15 163 0.0 3.2 0.00 0.00 0.00 83 1022.5
20260906060903 15 163 0.0 1.6 0.00 0.00 0.00 83 1022.4
20260906060217 15 163 0.0 1.6 0.00 0.00 0.00 82 1022.2
20260906055403 15 164 0.0 1.6 0.00 0.00 0.00 82 1022.2
20260906054505 15 164 0.0 6.4 0.00 0.00 0.00 81 1022.3
20260906053605 15 165 0.0 3.2 0.00 0.00 0.00 81 1022.4
20260906052706 15 165 1.6 6.4 0.00 0.00 0.00 81 1022.5
20260906052013 15 163 0.0 6.4 0.00 0.00 0.00 81 1022.4
20260906050906 15 0 0.0 0.0 0.00 0.00 0.00 82 1022.6
20260906050003 14 0 0.0 0.0 0.00 0.00 0.00 82 1022.6
20260906045406 14 0 0.0 0.0 0.00 0.00 0.00 82 1022.6
20260906044505 14 0 0.0 0.0 0.00 0.00 0.00 82 1022.6
20260906043605 14 0 0.0 0.0 0.00 0.00 0.00 83 1022.6
20260906042703 14 0 0.0 0.0 0.00 0.00 0.00 82 1022.6
20260906041803 14 0 0.0 0.0 0.00 0.00 0.00 82 1022.6
20260906040905 14 0 0.0 0.0 0.00 0.00 0.00 82 1022.7
20260906040005 14 0 0.0 0.0 0.00 0.00 0.00 81 1022.7
20260906035615 14 0 0.0 0.0 0.00 0.00 0.00 81 1022.8
20260906034505 14 0 0.0 0.0 0.00 0.00 0.00 81 1022.8
20260906033603 14 0 0.0 0.0 0.00 0.00 0.00 81 1022.8
20260906032703 14 0 0.0 0.0 0.00 0.00 0.00 81 1022.8
20260906031805 14 0 0.0 0.0 0.00 0.00 0.00 81 1022.7
20260906030905 14 0 0.0 0.0 0.00 0.00 0.00 80 1022.8
20260906030003 14 0 0.0 0.0 0.00 0.00 0.00 80 1023.0
20260906025405 14 0 0.0 0.0 0.00 0.00 0.00 80 1023.1
20260906024506 14 0 0.0 0.0 0.00 0.00 0.00 80 1023.2
20260906023603 14 0 0.0 0.0 0.00 0.00 0.00 80 1023.3
20260906022706 14 0 0.0 0.0 0.00 0.00 0.00 80 1023.6
20260906021803 14 0 0.0 0.0 0.00 0.00 0.00 81 1023.6
20260906020905 14 0 0.0 0.0 0.00 0.00 0.00 80 1023.9
20260906020005 14 0 0.0 0.0 0.00 0.00 0.00 80 1023.7
20260906015616 14 0 0.0 0.0 0.00 0.00 0.00 80 1023.9
20260906014506 14 0 0.0 0.0 0.00 0.00 0.00 80 1023.9
20260906013816 14 0 0.0 0.0 0.00 0.00 0.00 79 1024.0
20260906012705 15 0 0.0 0.0 0.00 0.00 0.00 79 1024.0
20260906011805 15 0 0.0 0.0 0.00 0.00 0.00 79 1024.2
20260906010904 15 0 0.0 0.0 0.00 0.00 0.00 79 1024.2
20260906010005 15 0 0.0 0.0 0.00 0.00 0.00 79 1024.1
20260906005405 15 0 0.0 0.0 0.00 0.00 0.00 79 1024.1
20260906004503 15 0 0.0 0.0 0.00 0.00 0.00 79 1024.2
20260906003606 15 0 0.0 0.0 0.00 0.00 0.00 79 1024.2
20260906002703 15 0 0.0 0.0 0.00 0.00 0.00 79 1024.3
20260906001805 15 0 0.0 0.0 0.00 0.00 0.00 78 1024.4
20260906000906 15 0 0.0 0.0 0.00 0.00 0.00 78 1024.5
20260906000003 15 165 0.0 3.2 0.00 0.00 0.00 78 1024.6
20260905235405 15 165 0.0 3.2 0.00 0.00 0.00 78 1024.5
20260905234503 15 165 0.0 1.6 0.00 0.00 0.00 78 1024.4
20260905232706 15 0 0.0 0.0 0.00 0.00 0.00 78 1024.5
20260905231803 15 165 0.0 1.6 0.00 0.00 0.00 77 1024.4
20260905230905 15 165 0.0 1.6 0.00 0.00 0.00 77 1024.4
20260905230005 15 165 0.0 1.6 0.00 0.00 0.00 77 1024.5
20260905225613 15 165 0.0 1.6 0.00 0.00 0.00 77 1024.5
20260905224504 15 0 0.0 0.0 0.00 0.00 0.00 76 1024.5
20260905223605 15 0 0.0 0.0 0.00 0.00 0.00 76 1024.6
20260905222915 16 165 0.0 1.6 0.00 0.00 0.00 76 1024.5
20260905222018 16 165 0.0 1.6 0.00 0.00 0.00 75 1024.5
20260905221115 16 0 0.0 0.0 0.00 0.00 0.00 75 1024.4
20260905220004 16 165 0.0 3.2 0.00 0.00 0.00 75 1024.4
20260905215403 16 165 0.0 3.2 0.00 0.00 0.00 75 1024.5
20260905214716 16 164 0.0 3.2 0.00 0.00 0.00 75 1024.7
20260905213605 16 0 0.0 0.0 0.00 0.00 0.00 74 1024.3
20260905212705 16 162 0.0 3.2 0.00 0.00 0.00 74 1024.2
20260905211805 16 162 0.0 3.2 0.00 0.00 0.00 74 1024.2
20260905210905 16 162 0.0 3.2 0.00 0.00 0.00 73 1024.2
20260905210218 16 162 0.0 1.6 0.00 0.00 0.00 73 1024.2
20260905205614 16 162 0.0 1.6 0.00 0.00 0.00 72 1024.1
20260905204506 17 161 0.0 6.4 0.00 0.00 0.00 72 1024.2
20260905203606 17 162 0.0 3.2 0.00 0.00 0.00 72 1024.1
20260905202703 17 162 0.0 3.2 0.00 0.00 0.00 71 1024.3
20260905200004 17 162 0.0 3.2 0.00 0.00 0.00 69 1024.3
20260905195615 18 162 0.0 3.2 0.00 0.00 0.00 68 1024.2
20260905194508 18 161 1.6 6.4 0.00 0.00 0.00 68 1024.1
20260905193605 18 161 1.6 6.4 0.00 0.00 0.00 67 1024.2
20260905191804 18 166 1.6 9.7 0.00 0.00 0.00 65 1024.0
20260905190903 19 155 1.6 9.7 0.00 0.00 0.00 63 1023.7
20260905190214 20 149 0.0 4.8 0.00 0.00 0.00 62 1023.7
20260905185403 20 146 0.0 4.8 0.00 0.00 0.00 59 1023.7
20260905184505 20 169 1.6 8.0 0.00 0.00 0.00 57 1023.6
20260905183815 21 212 0.0 6.4 0.00 0.00 0.00 54 1023.5
20260905182708 21 222 0.0 1.6 0.00 0.00 0.00 51 1023.4
20260905181805 21 222 0.0 3.2 0.00 0.00 0.00 50 1023.3
20260905180904 21 221 0.0 1.6 0.00 0.00 0.00 49 1023.3
20260905180006 22 221 0.0 1.6 0.00 0.00 0.00 49 1023.2
20260905175405 22 221 0.0 4.8 0.00 0.00 0.00 49 1023.2
20260905174506 22 221 0.0 6.4 0.00 0.00 0.00 48 1023.2
20260905173606 22 218 0.0 1.6 0.00 0.00 0.00 48 1023.3
20260905172704 22 217 0.0 3.2 0.00 0.00 0.00 47 1023.3
20260905171804 23 217 0.0 3.2 0.00 0.00 0.00 46 1023.3
20260905170906 23 217 0.0 3.2 0.00 0.00 0.00 45 1023.3
20260905170005 23 217 0.0 3.2 0.00 0.00 0.00 45 1023.3
20260905165406 23 216 0.0 4.8 0.00 0.00 0.00 45 1023.3
20260905164504 23 224 0.0 4.8 0.00 0.00 0.00 44 1023.3
20260905163606 24 272 0.0 3.2 0.00 0.00 0.00 44 1023.3
20260905162919 24 269 1.6 6.4 0.00 0.00 0.00 44 1023.3
20260905161805 24 207 0.0 3.2 0.00 0.00 0.00 43 1023.4
20260905160905 24 198 1.6 6.4 0.00 0.00 0.00 43 1023.4
20260905160216 24 207 1.6 8.0 0.00 0.00 0.00 43 1023.4
20260905155612 25 196 1.6 11.3 0.00 0.00 0.00 43 1023.4
20260905154503 24 287 1.6 6.4 0.00 0.00 0.00 43 1023.4
20260905153605 24 303 1.6 6.4 0.00 0.00 0.00 43 1023.5
20260905152703 24 237 1.6 6.4 0.00 0.00 0.00 43 1023.6
20260905151805 24 213 1.6 3.2 0.00 0.00 0.00 45 1023.6
20260905150905 23 250 0.0 4.8 0.00 0.00 0.00 45 1023.6
20260905150005 23 271 1.6 4.8 0.00 0.00 0.00 46 1023.5
20260905145406 23 267 1.6 4.8 0.00 0.00 0.00 47 1023.6
20260905144505 23 285 1.6 6.4 0.00 0.00 0.00 46 1023.6
20260905143603 23 317 1.6 3.2 0.00 0.00 0.00 47 1023.6
20260905142705 23 343 1.6 8.0 0.00 0.00 0.00 47 1023.6
20260905141805 23 9 1.6 8.0 0.00 0.00 0.00 46 1023.6
20260905140903 24 291 1.6 6.4 0.00 0.00 0.00 46 1023.6
20260905140005 24 242 1.6 4.8 0.00 0.00 0.00 45 1023.6
20260905135404 24 238 0.0 4.8 0.00 0.00 0.00 46 1023.5
20260905134504 24 237 1.6 6.4 0.00 0.00 0.00 46 1023.5
20260905133818 23 328 1.6 8.0 0.00 0.00 0.00 47 1023.5
20260905132704 23 305 1.6 6.4 0.00 0.00 0.00 48 1023.4
20260905131803 23 260 1.6 6.4 0.00 0.00 0.00 49 1023.5
20260905131115 23 244 1.6 6.4 0.00 0.00 0.00 49 1023.5
20260905130006 22 237 1.6 8.0 0.00 0.00 0.00 50 1023.5
20260905125614 22 240 1.6 4.8 0.00 0.00 0.00 50 1023.4
20260905124508 22 228 1.6 8.0 0.00 0.00 0.00 51 1023.6
20260905123814 22 216 1.6 8.0 0.00 0.00 0.00 50 1023.4
20260905122703 22 315 1.6 6.4 0.00 0.00 0.00 51 1023.3
20260905121805 22 348 1.6 9.7 0.00 0.00 0.00 51 1023.1
20260905120903 22 302 1.6 8.0 0.00 0.00 0.00 52 1023.2
20260905120004 22 356 1.6 4.8 0.00 0.00 0.00 53 1023.2
20260905115403 21 340 1.6 8.0 0.00 0.00 0.00 53 1023.2
20260905114505 22 319 3.2 8.0 0.00 0.00 0.00 51 1023.2
20260905113603 22 305 1.6 6.4 0.00 0.00 0.00 52 1023.4
20260905112704 22 333 1.6 12.9 0.00 0.00 0.00 51 1023.5
20260905112019 22 325 1.6 12.9 0.00 0.00 0.00 53 1023.5
20260905110906 22 260 1.6 11.3 0.00 0.00 0.00 54 1023.3
20260905110017 21 299 1.6 4.8 0.00 0.00 0.00 55 1023.5
20260905105405 21 310 1.6 9.7 0.00 0.00 0.00 55 1023.5
20260905104504 21 251 1.6 6.4 0.00 0.00 0.00 55 1023.4
20260905103604 21 286 1.6 8.0 0.00 0.00 0.00 56 1023.3
20260905102705 21 269 1.6 4.8 0.00 0.00 0.00 58 1023.3
20260905101805 20 331 1.6 8.0 0.00 0.00 0.00 60 1023.3
20260905100905 20 334 1.6 6.4 0.00 0.00 0.00 61 1023.2
20260905100007 20 312 1.6 6.4 0.00 0.00 0.00 60 1023.1
20260905095404 20 327 1.6 6.4 0.00 0.00 0.00 62 1023.0
20260905094506 20 318 1.6 6.4 0.00 0.00 0.00 62 1023.1
20260905092703 19 313 1.6 9.7 0.00 0.00 0.00 65 1022.9
20260905091804 18 289 1.6 8.0 0.00 0.00 0.00 66 1022.8
20260905090903 18 333 1.6 6.4 0.00 0.00 0.00 68 1022.7
20260905090003 18 309 1.6 6.4 0.00 0.00 0.00 69 1022.6
20260905085617 18 317 1.6 6.4 0.00 0.00 0.00 70 1022.6
20260905084504 17 309 1.6 4.8 0.00 0.00 0.00 71 1022.6
20260905083816 17 306 0.0 4.8 0.00 0.00 0.00 72 1022.6
20260905082705 17 316 1.6 4.8 0.00 0.00 0.00 73 1022.6
20260905081805 16 252 1.6 9.7 0.00 0.00 0.00 75 1022.4
20260905081118 16 248 1.6 6.4 0.00 0.00 0.00 76 1022.4
20260905080005 16 245 1.6 9.7 0.00 0.08 0.00 76 1022.4
20260905075408 16 264 1.6 6.4 0.00 0.08 0.00 78 1022.5
20260905074715 15 292 1.6 6.4 0.00 0.08 0.00 78 1022.3
20260905073603 15 255 1.6 12.9 0.00 0.08 0.00 79 1022.2